Regional Weather Roundup
Issued by NWS

Home | Current Version | Previous Version | Text Only | Print | Product List | Glossary Off
Versions: 1 2 3 4 5 6 7 8 9 10 11 12 13 14 15 16 17 18 19 20 21 22 23 24 25 26 27 28 29 30 31 32 33 34 35 36 37 38 39 40 41 42 43 44 45 46 47 48 49 50

000
ASUS43 KIND 311959
RWRIN

WEATHER ROUNDUP FOR INDIANA
NATIONAL WEATHER SERVICE INDIANAPOLIS IN
400 PM EDT MON AUG 31 2015

NOTE: "FAIR" INDICATES FEW OR NO CLOUDS BELOW 12,000 FEET WITH NO
SIGNIFICANT WEATHER AND/OR OBSTRUCTIONS TO VISIBILITY.

* - STATION DOES NOT REPORT WEATHER SUCH AS PRECIPITATION OR FOG.

+ - STATION NOT QUALITY CONTROLLED BY THE NATIONAL WEATHER SERVICE.
    USE DATA WITH CAUTION...ESPECIALLY DEWPOINT AND RELATIVE
    HUMIDITY OBSERVATIONS.

INZ001>003-010>013-019-020-312100-
NORTHWEST INDIANA

CITY           SKY/WX    TMP DP  RH WIND       PRES   REMARKS
GARY /AIRPORT/ MOSUNNY   82  68  61 VRB5      30.05F
KNOX *+        MOSUNNY   86  64  48 CALM      30.04F
MONTICELLO +   CLOUDY    84  71  64 S3        30.05F
RENSSELAER +   MOSUNNY   86  70  58 SW7       30.05F

$$

LMZ046-743>745-312100-
SOUTHERN LAKE MICHIGAN

STATION/POSITION TIME  TEMP    WIND        PRES    WAVE
                       AIR SEA DIR/SP/G            HT
                 (UTC) (F)     (DEG/KT/KT) (MB)    (FT)
BURNS HARBOR     1900   76      60/  8/  8 1018.3F
MICHIGAN CITY    1900   72      20/  7/  7   N/A
5NW MICH CITY    1900   73 74   20/  6/  6   N/A     0

$$

INZ004-005-014>016-021>024-312100-
NORTH CENTRAL INDIANA

CITY           SKY/WX    TMP DP  RH WIND       PRES   REMARKS
ELKHART        SUNNY     84  66  54 W7        30.06F
GOSHEN         MOSUNNY   83  68  60 W7        30.06F
SOUTH BEND     MOSUNNY   84  67  56 SW10      30.06F
WARSAW +       SUNNY     86  68  54 W6        30.06F

$$

INZ006>009-017-018-025>027-312100-
NORTHEAST INDIANA

CITY           SKY/WX    TMP DP  RH WIND       PRES   REMARKS
ANGOLA *+      SUNNY     86  70  58 W6        30.07F
FORT WAYNE     MOSUNNY   86  68  54 SW8       30.07F

$$

INZ028-029-035-036-043>045-051>053-312100-
WEST CENTRAL INDIANA

CITY           SKY/WX    TMP DP  RH WIND       PRES   REMARKS
CRAWFORDSVL +  MOSUNNY   84  60  43 SW7       30.07F
GREENCASTLE +  MOSUNNY   82  64  54 S5        30.09F
LAFAYETTE      MOSUNNY   87  66  49 SW9       30.05F
TERRE HAUTE    MOSUNNY   87  68  52 S9G18     30.07F

$$

INZ030>032-037>040-046>048-054>057-064-065-312100-
CENTRAL INDIANA

CITY           SKY/WX    TMP DP  RH WIND       PRES   REMARKS
ANDERSON       MOSUNNY   84  59  42 S12       30.09F
FRANKFORT +    MOSUNNY   87  68  53 S6        30.09F
GREENWOOD *+   MOSUNNY   84  64  51 W6        30.08F
INDIANAPOLIS   MOSUNNY   86  65  49 SW13      30.07F
-EAGLE CREEK   MOSUNNY   85  66  53 SW8       30.07F
KOKOMO *+      MOSUNNY   88  66  48 W8        30.06F
MT COMFORT *+  MOSUNNY   86  57  37 SW5       30.08F
SHELBYVILLE    PTSUNNY   88  68  51 SW8       30.07F
ZIONSVILLE +   MOSUNNY   86  65  48 SW3       30.08F

$$

INZ033-034-041-042-049-050-058-059-312100-
EAST CENTRAL INDIANA

CITY           SKY/WX    TMP DP  RH WIND       PRES   REMARKS
MUNCIE         MOSUNNY   84  67  56 VRB7      30.07F

$$

INZ060-061-067>069-081>083-085>088-312100-
SOUTHWEST INDIANA

CITY           SKY/WX    TMP DP  RH WIND       PRES   REMARKS
EVANSVILLE     MOSUNNY   86  65  49 SW6       30.08F
HUNTINGBURG *+ PTSUNNY   86  68  54 SW5       30.09F

$$

INZ062-063-066-070>080-084-089>092-312100-
SOUTH CENTRAL AND SOUTHEAST INDIANA

CITY           SKY/WX    TMP DP  RH WIND       PRES   REMARKS
BLOOMINGTON    MOSUNNY   84  68  58 W5        30.10F
MADISON *+     MOSUNNY   84  63  48 SE3       30.11F
SEYMOUR +      SUNNY     90  66  45 CALM      30.08F

$$




USA.gov is the U.S. government's official web portal to all federal, state and local government web resources and services.